Regional Weather Roundup
Issued by NWS

Home | Current Version | Previous Version | Graphics & Text | Print | Product List | Glossary On
Versions: 1 2 3 4 5 6 7 8 9 10 11 12 13 14 15 16 17 18 19 20 21 22 23 24 25 26 27 28 29 30 31 32 33 34 35 36 37 38 39 40 41 42 43 44 45 46 47 48 49
000
ASUS43 KDMX 271407
RWRIA

WEATHER ROUNDUP FOR IOWA
NATIONAL WEATHER SERVICE DES MOINES IA
900 AM CDT WED MAY 27 2015

NOTE: "FAIR" INDICATES FEW OR NO CLOUDS BELOW 12,000 FEET WITH NO
SIGNIFICANT WEATHER AND/OR OBSTRUCTIONS TO VISIBILITY.

* - THESE STATIONS ARE NOT NWS STATIONS...THUS NOT UNDER NWS
QUALITY CONTROL.  THEY ALSO DO NOT REPORT WEATHER SUCH
AS PRECIPITATION OR FOG.

IAZ001>003-012>014-020>022-031>034-043>046-271500-
   NORTHWEST IOWA

CITY           SKY/WX    TMP DP  RH WIND       PRES   REMARKS
CARROLL *      SUNNY     64  57  77 W10       30.03R
CHEROKEE *     SUNNY     63  59  88 SW3       30.01S
DENISON *      SUNNY     63  61  94 MISG      30.02R
LE MARS *      SUNNY     64  57  77 W5        30.03R
ORANGE CITY *  SUNNY     63  55  77 CALM      30.00S
SHELDON *      SUNNY     64  55  72 W7        29.99S
SIOUX CITY     SUNNY     64  54  69 CALM      30.03R
SPENCER        SUNNY     65  58  78 W9        30.00R
STORM LAKE *   SUNNY     63  57  82 W10       30.02S
$$

IAZ055>058-069>071-079>083-090>094-271500-
   SOUTHWEST IOWA

CITY           SKY/WX    TMP DP  RH WIND       PRES   REMARKS
ATLANTIC *     SUNNY     64  59  82 W5        30.05S
AUDUBON *      SUNNY     64  57  77 SW7       30.05R
CLARINDA *     SUNNY     66  57  72 CALM      30.07R
COUNCIL BLFS * SUNNY     63  61  94 W5        30.06R
CRESTON *      SUNNY     64  59  82 W7        30.05R
HARLAN  *      SUNNY     63  63 100 CALM      30.08S
LAMONI         SUNNY     68  58  70 W7        30.05R
RED OAK *      SUNNY     66  57  72 CALM      30.05R
SHENANDOAH *   SUNNY     66  57  72 CALM      30.06R
$$

IAZ047>049-059>061-072>074-084-271500-
   CENTRAL IOWA

CITY           SKY/WX    TMP DP  RH WIND       PRES   REMARKS
AMES           SUNNY     66  58  75 W7        30.01R
ANKENY *       SUNNY     64  59  82 W8        30.02R
CHARITON *     SUNNY     64  59  82 NW8       30.03R
DES MOINES     MOSUNNY   66  57  72 NW8       30.02R
GRINNELL*      MOSUNNY   63  57  82 W8        30.02R
KNOXVILLE *    SUNNY     64  57  77 NW8       30.02R
MARSHALLTOWN   MOSUNNY   63  58  83 W8        30.00R
PELLA *        SUNNY     66  61  82 W7        30.03R
PERRY *          N/A     64  57  77 W6        30.03R
$$

IAZ004>006-015-016-023>025-035-036-271500-
   NORTH CENTRAL IOWA

CITY           SKY/WX    TMP DP  RH WIND       PRES   REMARKS
ALGONA *       SUNNY     64  59  82 SW8       30.00R
CLARION *      SUNNY     64 N/A N/A W8        30.00R
ESTHERVILLE    SUNNY     63  55  75 W10       29.97R
FORT DODGE *   SUNNY     64  57  77 SW6       30.02R
MASON CITY     MOSUNNY   65  58  78 W12       30.00R
FOREST CITY *  SUNNY     63  55  77 W5        29.99R
IOWA FALLS *     N/A     64  57  77 W9        30.01R
$$

IAZ007>011-017>019-026>030-037>042-050>054-066-271500-
   NORTHEAST IOWA

CITY           SKY/WX    TMP DP  RH WIND       PRES   REMARKS
CEDAR RAPIDS   CLOUDY    62  59  90 W14       29.99R
CHARLES CITY * SUNNY     63  61  94 W8        29.99R
CLINTON *      PTSUNNY   64  57  77 W17       30.01R
DECORAH *      MOSUNNY   63  57  82 NW5       29.97R
DUBUQUE        CLOUDY    60  56  86 W14       29.98R
MONTICELLO *   CLOUDY    63  59  88 W12       29.99R
OELWEIN *      CLOUDY    61  57  88 NW13      29.99S
WATERLOO       SUNNY     64  57  78 NW9       29.98R
$$

IAZ064-065-067-068-078-271500-
   EAST CENTRAL IOWA

CITY           SKY/WX    TMP DP  RH WIND       PRES   REMARKS
DAVENPORT      MOSUNNY   65  59  81 W13       29.99S
MT. PLEASANT * CLOUDY    64  59  82 W8        30.02R
MUSCATINE *    PTSUNNY   66  59  77 W8        30.00S
QUAD CITIES    PTSUNNY   67  59  75 W12       29.98R
$$

IAZ062-063-075>077-085>089-095>099-271500-
   SOUTHEAST IOWA

CITY           SKY/WX    TMP DP  RH WIND       PRES   REMARKS
BURLINGTON     MOSUNNY   65  59  81 NW9       30.00R
FAIRFIELD *    MOSUNNY   64  59  82 NW8       30.02S
FORT MADISON * SUNNY     64  59  82 W12       30.02R
KEOKUK *       SUNNY     66  59  77 W13       30.01R
OSKALOOSA *      N/A     64  57  77 W10       30.02S
CENTERVILLE *  SUNNY     64  64 100 W7        30.06R
OTTUMWA        MOSUNNY   65  58  78 W8        30.02R
WASHINGTON *   PTSUNNY   64  59  82 W12       30.03R
$$

ABBREVIATIONS USED IN REMARKS
   TC - TEMPERATURES IN CELSIUS
  WCI - WIND CHILL INDEX
   HX - HEAT INDEX
  VSB - VISIBILITY
$$




USA.gov is the U.S. government's official web portal to all federal, state and local government web resources and services.